Stündliche Wetter La Cañada Flintridge

Heute, 18 Mai, Dienstag

Zeit Temperatur Niederschläge Wind Luftdruck Luftfeuchtigkeit
00:00 +15°C° 0 mm 1 m/S 721 mmHg 77%
01:00 +15°C° 0 mm 1 m/S 721 mmHg 77%
02:00 +15°C° 0 mm 1 m/S 721 mmHg 76%
03:00 +15°C° 0 mm 1 m/S 721 mmHg 76%
04:00 +15°C° 0 mm 1 m/S 721 mmHg 75%
05:00 +16°C° 0 mm 1 m/S 721 mmHg 69%
06:00 +18°C° 0 mm 1 m/S 721 mmHg 63%
07:00 +20°C° 0 mm 1 m/S 721 mmHg 57%
08:00 +22°C° 0 mm 1 m/S 721 mmHg 51%
09:00 +23°C° 0 mm 2 m/S 721 mmHg 45%
10:00 +25°C° 0 mm 3 m/S 721 mmHg 39%
11:00 +26°C° 0 mm 3 m/S 721 mmHg 36%
12:00 +27°C° 0 mm 4 m/S 720 mmHg 34%
13:00 +29°C° 0 mm 4 m/S 720 mmHg 31%
14:00 +28°C° 0 mm 4 m/S 720 mmHg 31%
15:00 +28°C° 0 mm 3 m/S 719 mmHg 31%
16:00 +28°C° 0 mm 3 m/S 719 mmHg 31%
17:00 +26°C° 0 mm 3 m/S 719 mmHg 34%
18:00 +24°C° 0 mm 2 m/S 719 mmHg 38%
19:00 +21°C° 0 mm 2 m/S 719 mmHg 41%
20:00 +21°C° 0 mm 2 m/S 719 mmHg 42%
21:00 +20°C° 0 mm 2 m/S 719 mmHg 43%
22:00 +19°C° 0 mm 2 m/S 719 mmHg 45%
23:00 +19°C° 0 mm 2 m/S 719 mmHg 45%

Morgen, 19 Mai, Mittwoch

Zeit Temperatur Niederschläge Wind Luftdruck Luftfeuchtigkeit
00:00 +19°C° 0 mm 1 m/S 719 mmHg 46%
01:00 +19°C° 0 mm 1 m/S 719 mmHg 47%
02:00 +18°C° 0 mm 1 m/S 719 mmHg 49%
03:00 +18°C° 0 mm 1 m/S 718 mmHg 52%
04:00 +16°C° 0 mm 1 m/S 718 mmHg 54%
05:00 +19°C° 0 mm 1 m/S 719 mmHg 51%
06:00 +20°C° 0 mm 1 m/S 719 mmHg 48%
07:00 +21°C° 0 mm 1 m/S 719 mmHg 46%
08:00 +21°C° 0 mm 2 m/S 719 mmHg 43%
09:00 +24°C° 0 mm 3 m/S 719 mmHg 41%
10:00 +25°C° 0 mm 3 m/S 719 mmHg 38%
11:00 +26°C° 0 mm 4 m/S 719 mmHg 37%
12:00 +26°C° 0 mm 4 m/S 719 mmHg 36%
13:00 +27°C° 0 mm 4 m/S 718 mmHg 35%
14:00 +27°C° 0 mm 4 m/S 718 mmHg 37%
15:00 +26°C° 0 mm 4 m/S 718 mmHg 39%
16:00 +26°C° 0 mm 4 m/S 717 mmHg 40%
17:00 +24°C° 0 mm 3 m/S 717 mmHg 47%
18:00 +21°C° 0 mm 3 m/S 717 mmHg 53%
19:00 +19°C° 0 mm 2 m/S 717 mmHg 59%
20:00 +19°C° 0 mm 2 m/S 717 mmHg 63%
21:00 +18°C° 0 mm 2 m/S 718 mmHg 67%
22:00 +17°C° 0 mm 2 m/S 718 mmHg 72%
23:00 +16°C° 0 mm 2 m/S 718 mmHg 74%

übermorgen, 20 Mai, Donnerstag

Zeit Temperatur Niederschläge Wind Luftdruck Luftfeuchtigkeit
00:00 +16°C° 0 mm 2 m/S 718 mmHg 77%
01:00 +15°C° 0 mm 2 m/S 718 mmHg 80%
02:00 +15°C° 0 mm 2 m/S 718 mmHg 81%
03:00 +14°C° 0 mm 2 m/S 718 mmHg 82%
04:00 +14°C° 0 mm 2 m/S 717 mmHg 83%
05:00 +14°C° 0 mm 2 m/S 718 mmHg 81%
06:00 +15°C° 0 mm 2 m/S 718 mmHg 79%
07:00 +15°C° 0 mm 2 m/S 718 mmHg 76%
08:00 +16°C° 0 mm 2 m/S 718 mmHg 69%
09:00 +17°C° 0 mm 2 m/S 718 mmHg 63%
10:00 +19°C° 0 mm 3 m/S 718 mmHg 56%
11:00 +20°C° 0 mm 3 m/S 718 mmHg 51%
12:00 +21°C° 0 mm 4 m/S 718 mmHg 46%
13:00 +22°C° 0 mm 4 m/S 718 mmHg 41%
14:00 +22°C° 0 mm 4 m/S 717 mmHg 41%
15:00 +22°C° 0 mm 4 m/S 717 mmHg 42%
16:00 +21°C° 0 mm 5 m/S 717 mmHg 43%
17:00 +20°C° 0 mm 4 m/S 717 mmHg 46%
18:00 +18°C° 0 mm 3 m/S 717 mmHg 50%
19:00 +17°C° 0 mm 3 m/S 717 mmHg 53%
20:00 +16°C° 0 mm 3 m/S 717 mmHg 54%
21:00 +16°C° 0 mm 2 m/S 718 mmHg 54%
22:00 +15°C° 0 mm 2 m/S 718 mmHg 54%
23:00 +14°C° 0 mm 2 m/S 718 mmHg 53%

21 Mai, Freitag

Zeit Temperatur Niederschläge Wind Luftdruck Luftfeuchtigkeit
00:00 +14°C° 0 mm 2 m/S 718 mmHg 51%
01:00 +13°C° 0 mm 2 m/S 718 mmHg 49%
02:00 +12°C° 0 mm 2 m/S 718 mmHg 48%
03:00 +12°C° 0 mm 2 m/S 718 mmHg 47%
04:00 +12°C° 0 mm 2 m/S 719 mmHg 46%
05:00 +13°C° 0 mm 2 m/S 719 mmHg 42%
06:00 +14°C° 0 mm 2 m/S 720 mmHg 38%
07:00 +15°C° 0 mm 2 m/S 720 mmHg 33%
08:00 +16°C° 0 mm 2 m/S 720 mmHg 30%
09:00 +18°C° 0 mm 3 m/S 720 mmHg 26%
10:00 +19°C° 0 mm 4 m/S 720 mmHg 23%
11:00 +20°C° 0 mm 5 m/S 720 mmHg 23%
12:00 +20°C° 0 mm 6 m/S 720 mmHg 23%
13:00 +21°C° 0 mm 7 m/S 720 mmHg 23%
14:00 +21°C° 0 mm 7 m/S 720 mmHg 23%
15:00 +20°C° 0 mm 6 m/S 720 mmHg 23%
16:00 +20°C° 0 mm 6 m/S 719 mmHg 24%
17:00 +17°C° 0 mm 5 m/S 720 mmHg 29%
18:00 +17°C° 0 mm 4 m/S 720 mmHg 34%
19:00 +14°C° 0 mm 3 m/S 720 mmHg 39%
20:00 +13°C° 0 mm 3 m/S 720 mmHg 47%
21:00 +12°C° 0 mm 4 m/S 721 mmHg 55%
22:00 +11°C° 0 mm 4 m/S 721 mmHg 63%
23:00 +11°C° 0 mm 4 m/S 721 mmHg 65%

22 Mai, Samstag

Zeit Temperatur Niederschläge Wind Luftdruck Luftfeuchtigkeit
00:00 +11°C° 0 mm 3 m/S 721 mmHg 67%
01:00 +10°C° 0 mm 3 m/S 721 mmHg 69%
02:00 +10°C° 0 mm 3 m/S 721 mmHg 69%
03:00 +10°C° 0 mm 2 m/S 721 mmHg 70%
04:00 +10°C° 0 mm 2 m/S 722 mmHg 70%
05:00 +12°C° 0 mm 2 m/S 722 mmHg 65%
06:00 +13°C° 0 mm 2 m/S 722 mmHg 60%
07:00 +14°C° 0 mm 2 m/S 723 mmHg 55%
08:00 +15°C° 0 mm 2 m/S 723 mmHg 50%
09:00 +17°C° 0 mm 2 m/S 723 mmHg 44%
10:00 +18°C° 0 mm 3 m/S 723 mmHg 39%
11:00 +19°C° 0 mm 3 m/S 722 mmHg 37%
12:00 +20°C° 0 mm 4 m/S 722 mmHg 36%
13:00 +21°C° 0 mm 5 m/S 722 mmHg 34%
14:00 +21°C° 0 mm 4 m/S 722 mmHg 36%
15:00 +20°C° 0 mm 4 m/S 722 mmHg 39%
16:00 +20°C° 0 mm 4 m/S 721 mmHg 41%
17:00 +18°C° 0 mm 3 m/S 722 mmHg 47%
18:00 +17°C° 0 mm 3 m/S 722 mmHg 52%
19:00 +16°C° 0 mm 2 m/S 722 mmHg 58%
20:00 +15°C° 0 mm 2 m/S 722 mmHg 62%
21:00 +14°C° 0 mm 2 m/S 723 mmHg 67%
22:00 +14°C° 0 mm 2 m/S 723 mmHg 71%
23:00 +13°C° 0 mm 2 m/S 723 mmHg 72%

23 Mai, Sonntag

Zeit Temperatur Niederschläge Wind Luftdruck Luftfeuchtigkeit
00:00 +13°C° 0 mm 1 m/S 723 mmHg 74%
01:00 +13°C° 0 mm 1 m/S 722 mmHg 75%
02:00 +13°C° 0 mm 1 m/S 722 mmHg 74%
03:00 +13°C° 0 mm 1 m/S 722 mmHg 72%
04:00 +13°C° 0 mm 1 m/S 722 mmHg 71%
05:00 +14°C° 0 mm 1 m/S 722 mmHg 67%
06:00 +15°C° 0 mm 1 m/S 723 mmHg 63%
07:00 +16°C° 0 mm 2 m/S 723 mmHg 59%
08:00 +18°C° 0 mm 2 m/S 723 mmHg 53%
09:00 +19°C° 0 mm 2 m/S 723 mmHg 47%
10:00 +21°C° 0 mm 3 m/S 723 mmHg 41%
11:00 +22°C° 0 mm 3 m/S 723 mmHg 38%
12:00 +24°C° 0 mm 3 m/S 723 mmHg 35%
13:00 +25°C° 0 mm 4 m/S 722 mmHg 32%
14:00 +25°C° 0 mm 4 m/S 722 mmHg 33%
15:00 +25°C° 0 mm 4 m/S 722 mmHg 33%
16:00 +25°C° 0 mm 4 m/S 721 mmHg 34%
17:00 +24°C° 0 mm 3 m/S 721 mmHg 40%
18:00 +21°C° 0 mm 2 m/S 721 mmHg 45%
19:00 +19°C° 0 mm 2 m/S 721 mmHg 51%
20:00 +20°C° 0 mm 1 m/S 721 mmHg 52%
21:00 +19°C° 0 mm 1 m/S 722 mmHg 53%
22:00 +19°C° 0 mm 1 m/S 722 mmHg 54%
23:00 +19°C° 0 mm 1 m/S 721 mmHg 53%
Mehr zeigen

Wir brauchen deine Erlaubnis

Meteoprog und unser Service Anbieter werden persönliche Daten aufbewahren, so wie Cookies, Geräte Bezeichnung oder ähnliche Technologien von deinem Gerät und Prozess, so wie Persönliche Daten Inhalte und Werbungen, genauso wie social Media und den Verkehr zu analysieren.

  • Aufbewahrung und/oder Zugang zu deiner Geräte Informationen.

    Cookies, Geräte Bezeichnung oder andere Informationen, können aufbewahrt oder Zugang zu deinem Gerät erhalten, für den Grund, der oben angegeben wird.

  • Personalisierte Werbung und Inhalte, Messungen, Einblick in das Publikum und Produkt Entwicklung.

    Werbungen und Inhalte können personalisiert werden, basierend auf ein Profil. Mehr Daten können besser personalisierte Werbungen und Inhalte hinzufügen. Werbung und Inhalte können gezeigt und gemessen werden. Einblicke über das Publikum, welche die Werbung gesehen haben und den Inhalt, können abgeleitet werden. So wie Daten können genutzt werden, um es zu verbessern oder die Benutzer Erfahrung zu verbessern das System und die Software.

Wenn du “Ich stimme zu” klickst, erlaubst du uns, die Cookies zu benutzen die Geräte Bezeichnung, den Web oder ähnliche Technologien zu benutzen. Deine Settings, können in deinem Gerät bei deinem Browser geändert werden.

Für den bestimmten Zweck, berechtigten Interessen beruhen darauf, mehr als auf den Inhalt. Du kannst mehr darüber in unseren Privaten und Cookie Politik lesen.